EHI
0 0 0 0 0 0 0 0 0 0 0 0 0 0 0 0 0 0 0 0 0 0 0 0 0 0 0 0 0 0 0 0 0 0 0 0 0 0 0 0 0 0 0 0
0 0 0 0 0 0 0 0 0 0 0 0 0 0 0 0 0 0 0 0 0 0 0 0 0 0 0 0 0 0 0 0 0 0 0 0 0 0 0 0 0 0 0 0
0 0 0 0 0 0 0 0 0 0 0 0 0 0 0 0 0 0 0 0 0 0 0 0 0 0 0 0 0 0 0 0 0 0 0 0 0 0 0 0 0 0 0 0
0 0 0 0 0 0 0 0 0 0 0 0 0 0 0 0 0 0 0 0 0 0 0 0 0 0 0 0 0 0 0 0 0 0 0 0 0 0 0 0 0 0 0 0
0 0 0 0 0 0 0 0 0 0 0 0 0 0 0 0 0 0 0 0 0 0 0 0 0 0 0 0 0 0 0 0 0 0 0 0 0 0 0 0 0 0 0 0
0 0 0 0 0 0 0 0 0 0 0 0 0 0 0 0 0 0 0 0 0 0 0 0 0 0 0 0 0 0 0 0 0 0 0 0 0 0 0 0 0 0 0 0
0 0 0 0 0 0 0 0 0 0 0 0 0 0 0 0 0 0 0 0 0 0 0 0 0 0 0 0 0 0 0 0 0 0 0 0 0 0 0 0 0 0 0 0
0 0 0 0 0 0 0 0 0 0 0 0 0 0 0 0 0 0 0 0 0 0 0 0 0 0 0 0 0 0 0 0 0 0 0 0 0 0 0 0 0 0 0 0
0 0 0 0 0 0 0 0 0 0 0 0 0 0 0 0 0 0 0 0 0 0 0 0 0 0 0 0 0 0 0 0 0 0 0 0 0 0 0 0 0 0 0 0
0 0 0 0 0 0 0 0 0 0 0 0 0 0 0 0 0 0 0 0 0 0 0 0 0 0 0 0 0 0 0 0 0 0 0 0 0 0 0 0 0 0 0 0
0 0 0 0 0 0 0 0 0 0 0 0 0 0 0 0 0 0 0 0 0 0 0 0 0 0 0 0 0 0 0 0 0 0 0 0 0 0 0 0 0 0 0 0
0 0 0 0 0 0 0 0 0 0 0 0 0 0 0 0 0 0 0 0 0 0 0 0 0 0 0 0 0 0 0 0 0 0 0 0 0 0 0 0 0 0 0 0
0 0 0 0 0 0 0 0 0 0 0 0 0 0 0 0 0 0 0 0 0 0 0 0 0 0 0 0 0 0 0 0 0 0 0 0 0 0 0 0 0 0 0 0
0 0 0 0 0 0 0 0 0 0 0 0 0 0 0 0 0 0 0 0 0 0 0 0 0 0 0 0 0 0 0 0 0 0 0 0 0 0 0 0 0 0 0 0
0 0 0 0 0 0 0 0 0 0 0 0 0 0 0 0 0 0 0 0 0 0 0 0 0 0 0 0 0 0 0 0 0 0 0 0 0 0 0 0 0 0 0 0
0 0 0 0 0 0 0 0 0 0 0 0 0 0 0 0 0 0 0 0 0 0 0 0 0 0 0 0 0 0 0 0 0 0 0 0 0 0 0 0 0 0 0 0
0 0 0 0 0 0 0 0 0 0 0 0 0 0 0 0 0 0 0 0 0 0 0 0 0 0 0 0 0 0 0 0 0 0 0 0 0 0 0 0 0 0 0 0
0 0 0 0 0 0 0 0 0 0 0 0 0 0 0 0 0 0 0 0 0 0 0 0 0 0 0 0 0 0 0 0 0 0 0 0 0 0 0 0 0 0 0 0
0 0 0 0 0 0 0 0 0 0 0 0 0 0 0 0 0 0 0 0 0 0 0 0 0 0 0 0 0 0 0 0 0 0 0 0 0 0 0 0 0 0 0 0
0 0 0 0 0 0 0 0 0 0 0 0 0 0 0 0 0 0 0 0 0 0 0 0 0 0 0 0 0 0 0 0 0 0 0 0 0 0 0 0 0 0 0 0
0 0 0 0 0 0 0 0 0 0 0 0 0 0 0 0 0 0 0 0 0 0 0 0 0 0 0 0 0 0 0 0 0 0 0 0 0 0 0 0 0 0 0 0
0 0 0 0 0 0 0 0 0 0 0 0 0 0 0 0 0 0 0 0 0 0 0 0 0 0 0 0 0 0 0 0 0 0 0 0 0 0 0 0 0 0 0 0
0 0 0 0 0 0 0 0 0 0 0 0 0 0 0 0 0 0 0 0 0 0 0 0 0 0 0 0 0 0 0 0 0 0 0 0 0 0 0 0 0 0 0 0
0 0 0 0 0 0 0 0 0 0 0 0 0 0 0 0 0 0 0 0 0 0 0 0 0 0 0 0 0 0 0 0 0 0 0 0 0 0 0 0 0 0 0 0
0 0 0 0 0 0 0 0 0 0 0 0 0 0 0 0 0 0 0 0 0 0 0 0 0 0 0 0 0 0 0 0 0 0 0 0 0 0 0 0 0 0 0 0
0 0 0 0 0 0 0 0 0 0 0 0 0 0 0 0 0 0 0 0 0 0 0 0 0 0 0 0 0 0 0 0 0 0 0 0 0 0 0 0 0 0 0 0
Wind_Speed
3 2 3 4 5 6 5 6 8 6 3 5 8 9 8 6 5 5 3 3 3 3 2 1 1 0 1 1 1 0 1 0 1 0 0 0 1 1 1 0 1 2 2 1
2 4 5 4 4 5 7 8 7 5 3 6 8 11 9 7 6 4 3 3 3 2 1 1 0 0 1 1 1 1 1 1 1 1 1 1 1 1 1 1 0 1 2 1
4 1 2 4 5 6 7 6 5 6 7 7 6 8 6 5 5 4 4 3 3 2 2 1 1 0 1 1 1 1 1 1 1 1 1 0 0 1 1 1 1 1 2 2
3 3 4 4 4 5 6 3 5 6 4 4 3 6 4 4 5 4 3 2 2 2 2 1 1 1 1 1 1 1 1 1 1 1 1 1 1 2 2 2 1 1 1 2
2 1 2 4 4 5 4 5 6 7 5 6 5 5 6 3 4 4 3 2 2 1 1 1 1 1 1 1 0 0 1 1 1 1 2 2 2 2 1 1 1 1 1 2
4 2 2 2 3 4 3 5 6 4 2 5 6 5 5 3 4 3 2 1 1 0 1 1 1 2 1 0 0 0 1 1 1 2 2 2 3 3 2 2 2 2 1 2
3 4 3 1 2 2 2 1 1 2 2 5 2 3 5 2 1 2 2 1 1 1 1 2 2 2 1 0 0 0 1 1 2 2 2 2 3 3 4 3 3 2 2 2
3 3 3 2 2 2 3 2 1 3 3 3 2 5 3 1 2 2 2 1 1 1 1 2 3 2 2 1 1 1 1 2 2 2 2 2 3 3 2 3 3 2 2 3
2 2 1 1 1 2 2 2 2 2 4 4 5 3 2 2 3 2 2 1 1 1 1 2 2 3 2 1 1 1 1 2 2 2 2 2 3 3 3 3 2 2 3 3
2 3 2 1 1 3 2 1 1 2 3 4 5 3 3 2 2 1 1 0 1 1 1 2 2 2 2 2 2 2 1 2 2 2 3 2 2 3 3 3 3 3 3 3
1 2 2 2 4 4 3 2 3 3 3 3 4 3 1 1 0 1 1 0 1 1 1 1 2 2 2 2 2 2 2 2 2 2 3 2 2 2 2 3 3 3 3 3
0 1 3 4 1 0 2 3 3 3 4 3 3 5 2 2 1 1 2 1 2 2 1 2 2 2 2 2 2 2 2 2 2 2 2 2 2 2 3 3 3 3 3 2
0 1 2 2 1 1 2 3 3 3 3 4 4 6 2 2 2 1 2 2 2 2 2 2 2 2 2 2 2 2 2 2 2 2 2 2 2 2 2 3 3 2 2 2
1 2 4 5 3 1 4 5 4 3 4 5 7 8 6 4 3 3 2 2 2 2 2 3 2 2 2 2 2 2 2 2 2 2 2 2 2 2 2 2 2 2 2 2
1 3 4 7 8 6 6 7 7 8 8 7 8 9 8 5 4 3 2 2 3 3 3 3 3 3 3 3 3 3 2 2 2 2 2 2 2 2 2 1 1 1 1 1
1 2 2 5 6 6 8 8 9 9 8 9 10 11 7 5 3 3 3 2 2 3 4 3 3 4 4 4 3 3 3 2 2 2 2 2 2 2 2 1 1 0 1 1
2 2 2 4 3 4 8 8 9 7 7 6 9 9 5 4 4 5 3 2 2 3 3 4 4 4 4 4 3 3 3 2 1 1 2 1 2 2 2 1 1 0 1 1
3 2 2 3 3 6 6 2 5 7 7 6 6 6 5 4 4 4 1 2 3 3 4 4 4 4 4 3 3 2 2 1 1 1 2 2 2 2 2 1 1 0 0 0
3 3 2 2 4 8 4 2 1 3 5 5 6 6 5 4 4 3 2 2 2 3 3 3 3 4 4 4 3 2 1 1 1 2 2 2 1 2 1 1 1 0 0 0
1 1 2 2 3 6 3 0 0 1 5 2 1 3 3 3 3 4 4 4 3 3 3 3 3 3 3 4 3 1 1 1 2 2 2 2 1 1 2 1 1 1 1 0
2 3 4 5 5 7 2 1 2 2 5 2 1 1 1 2 4 4 4 4 3 3 3 3 3 3 3 3 3 2 1 2 2 2 2 2 2 2 2 2 1 1 1 1
6 5 5 4 6 8 2 3 4 5 2 2 2 1 2 3 3 3 4 3 3 3 3 3 3 3 3 3 3 2 2 2 2 2 2 2 2 2 2 1 1 1 1 1
6 7 5 7 8 3 4 4 3 1 2 2 2 2 2 3 3 3 3 3 3 3 3 3 3 4 3 3 3 3 3 2 2 2 1 1 2 2 1 1 1 1 1 1
4 3 3 5 7 5 4 4 3 3 3 3 2 2 2 3 3 3 3 3 3 3 3 3 3 3 4 3 3 3 3 2 2 2 2 1 1 1 2 1 1 1 1 0
4 4 5 8 8 5 5 5 4 2 2 2 2 2 2 2 3 3 3 3 3 3 2 2 3 3 4 3 3 3 2 2 2 2 1 1 1 1 1 2 1 1 1 1
6 7 7 8 6 5 5 3 2 3 4 3 2 3 3 2 3 3 3 3 2 2 2 2 3 3 3 3 3 3 2 2 1 2 1 1 1 1 1 2 2 4 3 4
Wind_Direction
188 229 235 235 232 268 281 276 279 286 310 293 266 265 256 238 228 230 234 237 246 237 232 193 183 90 14 352 357 129 189 199 115 149 219 5 309 292 302 311 1 317 302 311
208 233 259 266 262 272 274 270 279 293 300 287 271 269 255 232 219 215 225 237 249 246 226 205 160 57 329 282 278 262 240 245 222 201 221 204 240 277 275 283 277 309 296 287
227 261 292 267 266 273 270 263 282 291 305 267 276 281 241 202 206 214 224 229 239 239 239 246 226 283 266 249 240 255 245 260 243 210 184 106 317 290 287 271 251 277 290 282
248 241 259 266 263 270 267 283 286 284 286 274 248 286 257 198 201 215 233 243 251 254 257 267 280 267 253 238 233 208 214 250 252 217 190 197 235 254 261 259 251 256 286 290
256 203 251 260 273 283 276 302 282 266 261 276 246 252 276 176 212 226 227 239 248 238 242 281 298 296 292 219 185 182 227 249 265 237 216 222 238 251 262 263 262 272 269 264
253 241 257 280 303 290 294 287 273 246 243 261 230 219 273 208 218 222 200 204 223 3 332 318 351 335 298 190 132 218 256 257 253 247 236 227 229 243 253 260 254 259 249 241
247 213 199 232 295 282 282 291 340 318 242 250 231 221 254 248 198 165 158 139 81 61 25 11 354 319 320 325 193 241 260 280 272 262 256 245 237 238 239 243 243 250 253 251
257 244 180 193 213 232 243 246 195 248 264 289 280 235 248 62 83 79 90 99 57 26 11 7 345 337 349 322 284 274 278 283 279 278 269 254 250 244 242 242 244 246 244 245
268 276 106 181 219 239 235 239 276 283 284 274 250 239 280 33 52 50 63 49 333 332 4 1 344 332 337 331 330 313 291 285 278 279 279 268 260 255 252 251 257 254 242 242
292 283 246 209 214 232 262 278 248 229 270 277 268 243 251 314 325 6 41 323 311 330 1 351 338 332 340 344 344 337 302 284 285 284 277 274 263 261 253 250 252 258 250 236
253 257 259 221 210 206 190 223 236 247 251 257 283 278 3 154 162 321 303 325 327 340 344 334 326 325 335 347 345 334 321 305 297 292 290 286 264 257 256 250 251 258 256 236
252 245 258 246 200 262 220 211 201 226 261 243 262 273 338 50 70 38 358 0 2 351 336 326 324 333 331 335 333 327 328 321 311 309 306 292 262 244 252 258 261 257 254 243
59 189 281 258 215 244 262 252 239 251 270 252 252 264 331 16 31 13 359 358 351 338 335 330 334 327 317 322 328 328 317 311 318 321 315 305 292 274 266 266 264 257 254 249
333 224 224 238 270 250 258 256 241 225 236 256 247 267 290 308 322 325 338 348 344 338 340 334 325 323 322 318 321 320 312 311 315 321 326 318 308 297 289 279 260 247 240 237
197 246 250 269 280 271 259 253 236 230 239 249 270 279 286 291 303 317 335 345 347 344 335 330 327 325 324 320 322 320 317 323 321 320 325 314 315 309 297 289 279 245 237 235
208 254 273 271 261 265 269 258 244 244 247 255 273 279 286 297 321 330 327 329 330 323 321 321 327 323 320 320 316 313 313 316 317 310 307 317 326 323 312 299 294 292 253 227
203 214 263 271 285 299 265 235 221 229 229 234 252 265 294 310 313 302 299 313 305 313 320 320 317 313 308 306 305 301 302 314 328 319 323 341 343 332 325 319 343 307 253 220
200 201 234 279 309 252 244 209 204 225 239 234 250 272 288 293 298 295 295 316 315 322 319 317 316 315 312 311 314 310 317 326 326 326 331 345 350 327 322 325 322 310 274 173
203 205 228 239 261 270 265 252 212 213 259 234 248 275 297 317 317 295 333 341 321 321 319 317 323 322 321 318 313 323 329 334 333 327 329 330 326 317 316 310 293 332 51 54
140 190 216 232 248 255 253 134 20 79 273 278 267 288 319 347 316 294 330 340 346 351 347 339 335 333 329 323 329 337 332 330 318 320 325 331 335 329 318 317 338 40 74 70
169 200 215 229 245 261 247 167 94 180 259 321 329 304 313 283 271 294 324 332 338 338 337 343 339 331 323 329 339 331 328 313 319 336 348 352 352 340 332 347 9 42 52 52
185 190 202 204 230 252 173 136 187 228 288 324 319 306 293 291 301 315 322 327 335 339 341 346 343 333 331 336 340 331 329 335 352 0 1 349 348 341 348 11 19 39 61 65
206 201 199 206 224 239 174 204 226 242 273 283 298 303 293 292 294 306 313 319 327 332 332 341 338 327 331 343 346 333 332 349 354 3 354 339 342 346 1 38 39 30 37 68
224 198 229 259 260 255 243 246 246 239 250 267 271 276 279 276 284 291 298 305 314 319 323 330 326 317 320 334 341 336 338 349 354 346 335 339 8 15 21 33 47 43 35 56
223 192 229 255 267 276 253 239 236 234 252 270 278 287 270 265 276 278 284 291 298 309 311 312 304 301 308 323 330 338 345 354 352 338 350 25 36 35 27 24 24 21 22 30
207 202 211 239 241 238 259 245 219 221 239 240 248 274 278 253 261 276 280 280 284 290 299 309 307 304 309 323 332 340 349 350 347 339 350 29 40 46 51 47 34 32 29 26